Location: Ambatotampy
(18.8181°S, 47.6186°E)
Time: 23:54:24
(UTC+00:00)

X-37B - Pass Details

Date: 21 January 2021
Orbit: 383 x 391 km, 45.0° (Epoch: 10 February)

Event Time Altitude Azimuth Distance (km) Brightness Sun altitude
Exits shadow 01:52:49 - 255° (WSW) 1,675 3.3 -8.7°
Reaches altitude 10° 01:54:08 10° 236° (SW) 1,417 3.1 -8.4°
Maximum altitude 01:55:12 11° 216° (SW) 1,344 3.2 -8.1°
Drops below altitude 10° 01:56:17 10° 196° (SSW) 1,420 3.5 -7.9°
Sets 01:59:36 0° 159° (SSE) 2,278 5.2 -7.2°
